Theta_e
329 333 334 335 335 333 333 333 331 330 331 333 332 333 335 335 335 332 328 326 323 324 325 325 327 327 326 326 324 324 322 319 319 319 318 317 318 318 319 322 326 328 328 325 326 329 330 332 334 335 335 334 334 334 334 334 333 334 333 333 332 332 331 330 328 328 328 327 328 327 327 327 327 327 326 326 325 324 323 320 319 320 322 323 323 323
328 334 333 331 332 330 330 331 330 331 332 331 330 334 336 335 334 329 323 323 322 323 328 328 326 326 325 325 325 325 324 321 319 317 317 317 316 317 317 321 325 326 325 324 325 326 329 331 333 334 334 334 334 333 333 334 333 333 333 333 333 332 332 331 330 329 328 328 327 327 327 328 327 327 327 327 326 325 324 323 322 321 322 322 322 323
331 334 331 328 329 328 328 329 329 331 332 331 330 333 337 337 334 327 321 322 322 324 333 334 328 327 327 326 328 328 327 325 322 319 319 319 318 317 317 318 321 323 325 327 325 324 327 330 331 333 334 334 334 334 334 333 333 333 333 333 332 332 332 331 331 330 329 329 328 327 327 327 328 327 327 327 326 326 326 325 324 323 323 323 324 324
333 331 328 327 327 327 328 328 329 330 330 331 331 332 338 338 335 332 325 322 323 325 330 330 326 325 324 323 324 325 326 326 325 323 321 321 321 320 319 318 318 320 323 326 325 323 325 328 330 332 333 334 334 334 334 333 333 333 333 333 332 332 332 332 332 331 330 330 329 328 328 327 327 327 328 328 327 327 326 326 325 325 325 325 325 325
331 329 327 327 326 327 329 328 329 330 330 332 332 333 337 335 333 334 328 322 323 327 325 323 328 330 327 326 324 322 323 322 323 324 323 322 322 322 322 321 319 319 319 322 324 323 322 326 329 330 332 333 333 334 334 334 334 333 333 333 332 332 332 332 332 331 331 330 330 329 329 328 328 328 329 329 328 328 327 327 327 326 326 326 326 326
329 327 327 328 327 328 329 329 330 330 330 331 332 333 335 335 334 332 327 324 329 334 329 324 332 339 337 332 328 324 324 323 323 324 323 323 323 323 322 321 321 321 319 319 322 322 321 323 328 330 331 332 333 333 333 334 333 333 333 332 332 332 332 332 331 331 331 331 331 330 329 329 329 329 329 329 329 329 328 328 328 327 327 327 327 327
327 326 327 328 328 330 331 330 329 329 330 332 333 332 332 334 337 335 330 329 335 338 330 324 331 338 336 331 328 327 325 325 325 324 325 323 323 324 322 320 320 321 321 320 319 321 321 322 325 328 331 331 332 333 333 333 333 333 333 332 332 332 332 332 331 331 331 331 331 330 330 330 330 330 329 329 329 329 329 329 329 328 328 328 328 328
327 327 328 328 329 331 330 329 328 328 330 333 333 333 332 331 335 338 337 335 337 336 332 330 330 333 334 331 328 329 327 327 327 325 326 325 323 324 323 321 320 319 321 321 320 321 320 320 323 327 330 330 331 332 332 332 332 332 332 332 332 332 332 332 331 331 331 331 330 330 330 330 330 330 329 329 329 329 329 329 329 329 329 329 328 329
325 327 328 327 328 328 327 328 327 327 330 332 333 333 332 332 336 340 341 338 333 332 335 333 329 331 336 334 329 329 330 330 329 327 326 326 323 323 322 321 320 319 319 320 321 321 318 316 318 323 327 330 331 331 331 331 332 332 332 332 332 332 332 332 331 332 331 331 331 330 330 330 330 329 329 329 329 329 329 330 330 330 329 329 329 329
324 326 326 325 327 326 326 328 328 329 329 329 329 330 329 330 334 337 338 336 332 331 333 333 329 330 336 337 329 327 331 329 326 326 325 325 325 323 322 321 320 319 320 321 322 319 314 313 316 319 323 327 329 329 330 330 331 331 331 331 331 331 332 332 332 332 331 331 331 329 330 329 329 329 329 329 329 329 330 330 330 330 330 330 329 329
323 323 323 325 326 325 326 328 330 330 329 329 329 328 327 329 333 336 335 335 335 332 331 332 331 328 333 341 333 325 333 332 325 327 326 324 326 325 324 322 320 320 322 324 325 318 312 313 315 316 318 323 326 328 329 329 329 330 330 331 331 331 331 331 331 331 331 331 331 330 330 329 329 329 329 329 329 329 329 330 330 330 330 330 329 329
324 324 325 326 325 325 327 328 328 328 328 330 331 329 329 330 334 336 332 332 335 332 330 331 330 327 330 339 336 326 331 332 328 331 330 326 326 326 326 323 322 326 326 326 328 323 317 316 315 313 315 318 322 326 327 328 329 329 329 329 330 330 330 331 331 331 331 330 330 330 330 329 329 328 328 329 329 329 329 329 329 330 330 330 330 329
327 327 327 326 325 325 328 329 327 326 327 328 329 330 332 331 332 334 329 329 331 329 329 327 327 328 328 331 332 327 327 327 328 330 330 327 324 324 325 323 324 328 328 327 329 327 327 324 315 311 314 314 317 322 325 327 327 328 329 329 329 329 329 330 330 330 330 330 330 330 329 329 329 328 328 328 328 328 328 329 329 329 329 330 330 329
328 328 327 325 325 326 327 328 327 327 328 326 326 329 333 331 331 332 328 328 331 329 326 323 324 329 328 326 327 325 323 323 326 328 332 334 328 325 325 324 324 326 326 330 330 330 335 327 312 309 313 312 313 317 323 327 327 327 328 328 328 329 329 329 329 330 330 330 330 330 330 329 329 329 328 328 328 328 328 328 328 329 329 329 329 329
329 330 327 325 327 327 325 326 327 327 326 326 326 329 331 329 330 332 329 330 331 327 322 320 324 330 330 327 325 323 323 323 323 327 333 335 331 327 324 322 323 324 327 332 333 335 335 321 311 312 313 312 312 313 316 321 325 327 328 328 328 328 328 329 329 329 329 330 330 330 330 330 329 329 329 329 328 328 328 328 328 328 328 328 329 329
329 329 326 324 326 326 326 326 326 326 327 327 327 329 330 329 332 333 329 329 331 327 323 323 327 331 328 324 322 321 324 325 323 323 324 327 327 325 321 320 324 327 328 331 333 335 328 314 311 314 313 312 313 312 312 314 317 321 325 327 328 328 329 329 329 329 329 329 329 330 330 330 330 330 329 329 329 329 328 328 328 328 328 328 328 328
329 328 324 324 326 324 326 326 323 325 329 328 328 329 328 329 336 336 326 325 327 327 327 326 328 331 326 323 323 322 325 326 323 320 320 323 326 323 322 324 328 328 327 330 333 334 326 314 311 313 312 313 312 311 312 311 311 313 316 320 323 324 326 327 327 328 328 329 330 330 330 330 330 330 330 330 330 329 329 329 329 328 328 328 328 328
328 327 323 323 326 324 325 325 322 325 328 328 329 328 326 328 334 335 329 327 327 328 329 325 326 330 327 326 327 324 323 324 323 322 319 322 325 323 323 327 329 328 327 328 328 328 322 311 310 312 312 312 311 311 311 310 311 311 311 313 315 317 319 320 322 323 325 327 328 329 330 330 330 330 330 330 330 330 330 329 329 329 328 328 328 328
326 327 323 322 324 324 325 326 325 327 326 327 328 326 327 331 330 330 331 332 329 329 332 328 325 328 327 327 327 324 323 323 322 322 319 320 323 324 324 326 325 324 324 324 323 326 322 311 309 312 311 311 312 311 310 310 310 311 310 311 311 312 313 314 315 316 317 320 322 324 325 327 328 329 329 330 330 330 330 329 329 329 329 329 328 328
324 327 325 321 322 324 326 326 326 327 324 324 326 324 327 331 330 328 329 331 330 328 331 331 328 331 330 326 326 325 325 323 322 322 320 319 322 323 321 321 321 322 324 326 326 329 326 314 309 311 311 311 311 311 311 311 310 310 310 310 310 310 310 310 311 312 312 314 315 318 320 321 323 325 326 327 328 328 328 328 328 328 328 328 328 328
322 326 327 322 319 323 327 326 326 326 323 324 326 325 326 327 327 328 328 330 332 331 333 331 327 334 335 326 322 322 324 323 321 322 321 318 319 320 318 319 322 323 325 328 327 331 328 315 310 312 311 310 310 310 310 310 310 310 309 310 310 310 310 310 310 310 310 310 311 313 315 317 318 320 322 323 325 326 326 327 327 327 328 327 327 327
323 325 325 322 320 324 327 324 324 325 323 324 325 325 325 325 325 327 327 329 330 330 335 333 326 331 336 327 320 319 321 323 322 321 321 317 317 318 316 319 323 323 326 328 328 334 329 313 310 313 311 310 311 310 310 309 309 308 308 308 309 309 310 310 310 310 310 310 310 310 311 312 314 316 317 319 321 322 323 324 325 325 326 326 326 326
324 324 323 322 322 323 322 319 321 325 323 323 324 324 324 323 323 325 326 328 329 327 330 331 326 328 332 327 322 320 320 322 323 322 319 316 314 315 316 319 324 325 326 327 330 334 321 309 310 313 311 311 311 310 310 309 308 308 308 308 308 309 309 309 310 310 311 311 310 310 310 311 312 313 315 317 318 320 320 321 322 323 324 324 325 325
324 323 322 321 320 320 319 317 319 322 323 323 324 324 324 323 322 324 325 327 329 328 327 328 325 328 333 330 323 321 320 319 321 320 317 314 313 314 316 320 323 325 327 327 330 329 315 307 310 312 311 311 311 310 310 309 309 309 308 308 308 308 309 310 310 311 311 311 311 311 311 311 311 312 314 316 317 318 319 320 321 321 321 322 323 324
324 323 322 322 321 321 322 322 320 320 321 323 323 322 323 323 323 325 326 325 328 328 326 327 326 326 330 328 320 320 321 319 319 317 315 314 314 314 316 318 320 323 327 327 327 327 321 317 315 311 311 312 310 310 310 309 309 309 308 309 309 309 309 309 310 311 311 311 311 311 311 311 311 311 312 313 314 315 317 318 319 320 320 321 322 323
324 324 323 323 324 325 325 326 325 323 322 323 323 322 322 323 323 324 324 323 326 326 325 326 325 321 323 322 317 318 320 318 317 315 314 314 314 314 315 317 319 322 325 327 328 329 327 326 319 310 310 311 310 309 309 308 308 308 308 309 308 308 309 309 309 310 310 311 310 311 311 311 311 311 311 312 313 313 314 315 315 316 317 318 319 320
321 322 323 323 324 324 324 325 325 324 323 323 323 322 322 323 323 322 323 323 324 324 324 325 324 321 322 320 317 318 320 320 317 316 316 315 314 315 315 316 317 320 324 327 328 328 326 327 324 313 308 311 311 309 308 307 307 307 307 307 307 307 307 308 308 309 308 309 309 309 310 310 310 310 310 311 311 311 311 311 311 312 313 315 316 317
320 320 322 323 323 323 324 325 323 322 323 322 323 323 322 322 323 323 324 323 323 324 324 323 322 323 322 318 318 318 318 318 317 316 316 316 316 316 314 314 316 319 323 324 325 329 326 326 329 318 309 310 311 309 308 307 307 307 306 306 307 306 307 307 307 307 307 307 307 307 307 307 307 308 308 307 307 307 307 306 307 309 312 313 314 315
320 320 320 321 322 322 323 325 323 322 322 322 322 322 322 322 323 323 323 323 322 323 323 321 321 322 320 318 318 317 315 315 314 314 314 314 314 316 315 315 317 318 321 323 325 329 326 325 332 322 309 309 312 309 308 308 307 307 307 307 307 307 307 307 306 307 307 306 305 305 304 304 304 304 305 304 304 304 304 304 306 307 309 311 312 314
320 319 317 317 320 320 321 322 322 322 322 322 321 321 321 321 322 322 322 322 322 322 321 320 322 321 319 319 319 316 315 314 312 310 311 311 313 316 317 317 317 316 319 321 322 326 326 327 332 319 305 308 312 309 309 309 308 308 307 306 307 307 306 306 306 306 306 306 304 303 302 302 301 301 302 303 302 303 304 305 306 307 307 308 310 312
320 320 316 316 319 320 320 321 321 321 322 322 322 321 321 322 322 322 322 322 322 322 321 321 322 321 319 320 319 317 315 313 311 311 312 312 313 315 317 317 316 315 316 318 320 324 326 328 334 322 306 307 310 309 309 309 308 308 307 306 306 306 306 306 306 306 306 305 303 301 302 301 300 300 301 301 302 303 304 306 307 308 308 308 310 311
319 318 315 316 320 321 320 321 321 321 321 322 322 322 321 321 322 321 322 322 322 322 322 322 322 320 319 320 320 319 316 314 314 314 314 313 313 313 314 315 315 314 314 316 319 324 327 331 336 326 310 307 308 308 308 308 307 307 306 305 305 305 306 306 305 305 305 303 301 301 302 301 300 300 300 301 302 304 306 307 308 309 310 310 311 312
318 318 316 318 321 322 320 319 318 319 321 322 321 320 320 321 321 321 321 321 321 321 322 322 321 321 322 322 320 320 319 315 314 314 313 313 312 312 312 312 313 312 313 315 318 323 329 328 320 312 308 308 309 308 307 307 307 306 305 304 304 304 304 304 304 304 303 302 301 301 301 301 301 302 301 302 303 305 306 307 308 310 311 311 312 312
317 319 317 317 322 323 319 317 318 320 322 323 321 319 319 320 320 321 321 320 320 320 320 320 320 321 323 322 319 320 319 315 313 313 313 312 313 313 312 312 312 312 313 315 318 323 329 321 308 305 308 309 308 307 307 306 306 305 304 304 303 302 302 303 303 303 301 300 300 300 301 301 302 302 302 302 303 305 306 307 308 310 311 311 311 312
316 318 317 316 321 322 318 318 321 322 322 323 321 319 317 318 319 320 320 319 319 319 319 319 319 320 323 323 321 320 317 314 314 313 312 313 313 313 313 313 313 313 314 316 319 325 324 313 304 304 308 308 307 307 306 305 304 304 303 303 302 302 302 302 302 301 300 299 299 300 301 301 302 303 303 303 303 304 306 308 309 309 309 309 310 310
315 316 316 316 319 320 319 320 323 323 320 320 320 318 317 318 319 320 321 320 318 319 319 320 319 318 320 322 321 321 319 316 315 314 313 314 314 314 314 314 314 315 315 317 321 321 314 307 305 307 307 307 307 306 304 304 304 303 302 302 302 302 302 302 302 300 298 297 298 299 300 302 302 303 304 304 304 304 306 307 308 308 308 308 308 308
315 316 316 317 319 319 320 321 322 323 322 319 319 319 318 318 318 319 321 320 318 318 318 319 318 318 318 318 319 320 319 316 316 316 315 315 316 315 315 314 315 315 313 313 313 312 310 309 309 309 307 306 305 304 304 304 303 303 302 302 302 302 302 301 300 298 296 296 297 299 300 301 302 303 304 305 305 304 305 306 306 306 306 307 307 306
315 316 316 317 319 318 319 321 322 324 324 321 319 318 317 318 318 319 320 320 319 317 317 317 317 318 317 317 318 318 317 317 318 317 316 317 317 316 316 316 315 312 308 306 306 305 308 310 309 307 306 305 303 303 303 303 302 302 302 301 301 301 301 299 297 296 296 296 296 297 299 300 302 303 303 304 304 304 304 305 306 306 305 305 305 305
315 316 315 316 317 317 318 321 321 323 324 322 320 317 316 319 320 320 321 321 319 318 317 317 317 317 317 317 318 317 317 318 318 316 316 319 318 317 316 315 314 310 304 304 306 306 307 307 306 305 304 303 302 302 302 302 302 302 302 300 300 300 299 297 295 295 296 296 296 297 298 299 301 302 303 303 303 303 303 304 304 304 304 304 303 303
315 315 314 315 315 314 316 319 321 321 322 322 322 318 316 317 318 321 322 322 318 317 317 317 317 317 316 316 317 316 316 318 317 315 316 318 318 317 316 314 316 315 307 304 306 306 306 305 303 302 302 302 302 302 301 302 302 302 301 300 299 298 298 296 295 294 295 295 295 296 297 299 300 301 301 302 302 302 302 302 302 302 302 301 302 301
315 315 315 315 315 314 315 318 320 320 320 323 322 317 315 317 319 321 322 320 318 318 316 315 316 316 316 316 315 315 314 315 316 315 317 318 316 316 315 310 308 308 304 301 303 304 302 302 302 301 300 301 301 300 300 302 302 301 299 298 297 297 297 296 295 293 293 294 295 296 297 298 299 300 300 301 301 301 301 301 301 300 300 300 300 300
316 315 315 315 315 315 316 317 319 319 321 324 321 315 314 318 319 319 319 318 321 321 316 315 316 315 315 315 314 314 314 315 315 315 317 318 316 315 316 312 307 305 302 299 300 301 300 298 298 298 298 298 299 299 300 302 301 299 297 296 295 295 295 296 295 292 292 293 295 296 297 298 298 299 299 300 300 300 300 299 299 299 299 299 298 298
316 316 315 316 316 317 318 318 318 319 319 319 317 314 315 318 319 318 316 318 325 324 318 315 315 314 315 315 314 314 315 314 314 315 316 318 316 315 316 314 310 306 300 297 297 298 298 296 294 294 295 296 297 298 300 300 299 296 295 294 294 294 296 296 294 292 292 294 295 296 297 297 297 298 298 298 299 298 298 298 297 298 298 297 297 296
315 316 316 316 316 318 318 317 319 320 317 315 316 315 315 316 319 319 315 316 323 324 319 317 316 314 314 314 313 314 314 314 316 318 319 318 316 315 313 310 306 302 298 295 296 296 296 293 291 291 293 294 295 297 299 300 297 295 294 294 294 295 296 295 294 292 292 293 294 294 295 296 296 296 297 297 297 296 296 296 296 296 296 296 295 295
315 314 316 316 316 316 317 317 318 319 316 314 316 317 314 314 320 322 317 315 320 322 320 320 320 316 314 314 314 314 314 314 315 317 318 318 315 311 309 306 301 298 296 294 293 294 294 292 290 289 290 291 294 295 297 298 298 295 293 293 294 295 296 295 295 294 293 292 293 293 294 294 294 295 295 296 296 296 295 295 295 295 295 294 294 294
315 314 315 316 316 316 316 316 316 318 316 314 315 318 316 315 318 319 317 316 321 324 322 319 319 317 314 313 313 314 313 314 314 314 315 315 311 306 304 301 296 293 293 292 291 291 291 290 288 287 287 288 291 293 295 297 298 296 293 294 295 295 295 296 296 295 293 292 292 292 293 293 293 293 294 294 295 295 295 295 295 295 294 294 293 293
317 315 315 318 318 316 317 316 315 315 316 315 315 317 318 316 315 314 315 319 323 325 323 319 319 319 317 314 314 315 314 313 314 312 311 310 307 303 302 301 296 292 291 291 291 290 289 288 286 285 284 285 288 291 293 294 296 295 294 294 295 295 294 295 295 294 292 291 291 291 292 292 292 292 292 293 293 293 294 294 294 294 293 293 293 292
316 315 315 317 318 316 316 316 315 315 316 317 316 315 315 316 315 313 316 320 322 320 317 315 314 316 318 316 314 314 314 314 314 312 309 306 304 301 299 297 294 292 291 290 290 289 289 287 285 284 282 282 285 288 291 292 293 293 293 294 294 294 294 294 293 292 291 290 290 290 290 290 290 290 291 291 291 291 291 291 292 292 291 291 291 290
315 315 316 317 317 316 315 316 318 318 316 315 314 312 313 316 316 315 317 320 320 317 316 314 312 313 317 318 316 314 316 316 313 310 307 303 300 299 297 294 291 290 290 289 289 289 288 286 284 283 281 281 284 287 289 290 290 291 292 293 292 292 293 292 291 290 289 289 289 289 289 289 289 289 289 289 289 289 289 289 290 290 289 289 289 289
315 314 315 316 316 316 315 315 316 316 315 315 315 313 314 316 317 316 318 318 315 314 317 318 316 313 313 315 314 314 318 316 309 305 305 302 299 297 294 291 289 288 289 289 288 287 286 284 283 281 280 281 284 287 288 288 289 290 291 291 291 292 292 291 290 288 288 288 288 288 288 288 288 288 288 288 288 288 287 287 288 288 287 287 287 287
314 314 314 315 315 315 314 313 314 315 315 319 321 316 313 314 316 316 317 317 315 313 314 316 316 315 315 314 310 311 317 316 307 303 304 300 296 293 291 289 289 288 287 287 286 284 283 282 281 281 280 282 284 286 287 287 288 289 289 289 290 290 291 291 290 287 286 287 286 286 287 287 286 286 287 286 287 287 287 286 286 286 286 285 285 285
Wind_Speed
5 5 6 9 11 11 11 10 7 5 8 9 7 5 6 5 5 5 4 5 8 8 8 9 9 11 11 9 10 10 8 8 9 9 9 9 9 9 9 8 10 10 11 17 23 26 29 31 32 32 33 33 34 34 35 36 37 37 36 35 35 35 35 35 36 36 35 34 32 32 32 33 33 32 32 32 32 31 31 31 32 33 33 32 32 31
5 9 12 12 12 12 12 11 9 8 6 6 5 5 5 6 5 5 3 3 3 3 6 6 7 10 10 8 9 9 8 9 10 11 11 11 10 9 9 10 10 9 9 12 16 22 27 29 31 32 32 33 34 35 37 37 38 38 37 37 37 36 37 37 38 37 38 38 36 34 34 34 33 33 33 34 33 33 32 31 32 33 33 33 33 32
6 11 15 13 11 11 10 10 10 9 6 5 4 4 4 5 4 2 3 2 2 2 5 3 5 9 9 8 9 8 8 8 10 13 13 13 11 10 10 10 10 9 8 9 11 17 25 28 30 31 32 34 35 35 37 38 38 38 38 39 38 38 38 39 39 39 39 39 39 37 35 34 33 33 34 34 34 33 34 34 33 33 34 34 34 34
8 10 13 12 11 12 11 10 10 7 6 5 4 4 3 4 4 1 3 2 1 3 3 2 4 7 7 8 9 9 9 9 10 12 12 12 13 13 13 12 11 11 10 10 10 13 19 25 28 30 32 34 34 34 35 37 37 38 39 41 40 40 40 40 40 40 40 38 37 37 36 34 33 32 32 32 33 34 35 35 35 36 36 36 36 36
7 7 12 12 11 13 11 10 10 7 5 5 5 5 4 3 4 3 3 2 1 3 1 3 5 6 6 7 10 9 9 11 11 12 12 11 10 10 11 11 11 12 12 12 12 11 14 19 25 30 34 35 34 35 36 38 39 39 41 41 41 41 41 42 42 41 39 36 35 34 33 31 30 29 28 29 33 36 36 38 39 39 38 38 38 38
6 9 14 14 12 11 11 11 11 9 5 5 6 6 7 6 3 2 3 3 2 5 3 2 2 6 4 5 9 6 5 8 8 11 14 13 10 9 9 9 10 10 11 11 12 12 14 18 24 28 31 32 33 36 39 40 41 41 40 40 40 41 42 42 42 41 39 36 35 34 33 31 30 29 31 34 37 37 39 41 41 40 40 40 40 40
5 10 14 14 13 11 9 9 10 10 6 4 6 7 8 6 6 6 4 3 2 4 3 3 3 6 6 6 9 7 7 10 9 9 12 11 10 10 10 10 10 10 10 10 11 11 13 18 21 23 28 31 33 36 38 38 39 40 39 39 40 40 40 41 40 40 40 38 36 36 36 35 34 33 36 39 38 36 38 39 38 38 39 40 40 40
9 14 13 13 13 10 8 8 9 10 7 4 5 8 9 6 6 7 6 3 2 2 4 3 3 3 6 6 7 8 9 12 12 11 10 10 11 11 11 11 11 12 12 10 10 10 11 16 19 23 28 31 34 36 35 34 35 37 38 38 38 38 38 38 38 38 40 41 39 38 37 36 36 37 38 37 34 34 34 35 36 38 39 40 40 40
14 17 16 16 12 9 9 8 8 11 6 3 3 7 7 5 5 6 6 3 1 2 4 3 2 2 6 6 5 5 8 11 12 12 12 11 10 11 11 11 12 13 12 10 10 10 10 16 22 25 28 31 34 35 34 34 35 35 36 35 35 36 37 37 37 37 40 41 40 38 37 36 38 39 37 32 30 31 32 33 35 37 38 39 40 41
9 14 16 15 10 8 10 7 9 12 6 2 5 8 6 5 7 6 5 4 3 1 5 4 3 2 5 7 5 2 5 11 11 10 11 12 11 10 10 11 11 10 9 8 8 9 12 17 23 26 27 29 33 34 34 34 34 33 33 33 33 36 38 37 37 37 39 41 40 38 38 38 38 36 33 29 29 30 31 32 35 36 38 39 41 43
4 10 11 10 8 8 9 6 8 12 8 5 8 9 7 6 6 4 3 5 2 4 6 7 7 5 4 6 5 4 6 8 8 7 9 9 9 9 9 9 9 8 7 7 7 8 11 16 20 22 24 27 30 31 32 32 32 32 33 33 34 36 37 37 37 37 38 39 39 40 39 39 39 36 31 30 32 32 32 34 36 37 38 39 41 43
6 11 7 5 6 8 9 4 1 7 10 8 5 6 5 3 4 3 4 3 2 5 5 7 8 7 6 6 6 6 7 7 7 7 8 6 5 5 5 5 6 7 6 6 6 7 7 10 13 16 19 23 25 28 30 31 32 32 33 34 35 36 37 37 37 37 37 37 39 41 41 41 41 37 34 33 35 35 34 35 36 35 36 38 39 41
6 6 4 3 3 6 10 5 3 4 8 7 5 7 6 2 2 1 1 1 4 6 4 3 4 5 7 7 7 10 10 9 8 7 6 7 7 5 6 5 5 5 5 5 6 6 6 6 8 11 15 17 19 24 28 31 32 32 33 33 34 36 37 36 35 36 37 37 39 41 41 41 40 37 37 37 37 36 35 36 36 35 36 37 38 40
4 2 1 6 3 4 11 10 5 5 7 8 8 8 6 4 3 3 3 1 4 5 3 2 3 4 4 4 11 17 16 10 7 7 6 7 7 7 7 6 4 4 5 5 5 5 5 6 8 11 13 13 15 19 23 26 29 30 30 31 32 34 35 34 34 34 35 37 39 40 40 40 39 38 39 39 39 38 37 37 37 37 37 37 38 40
9 2 6 11 5 6 11 10 8 6 5 6 6 6 6 5 4 5 4 3 4 3 2 2 2 4 3 3 9 15 13 7 4 7 7 5 5 5 5 3 3 4 5 5 5 6 6 7 10 11 12 14 15 16 18 20 23 25 26 28 29 32 32 31 32 33 34 36 38 39 39 39 39 39 39 39 40 39 38 37 36 37 37 38 39 39
11 4 7 8 3 11 13 6 7 9 4 2 3 5 4 4 4 3 3 4 4 1 1 2 3 4 4 6 8 7 9 7 5 6 5 6 4 4 4 3 4 5 6 5 5 6 7 8 10 11 12 13 13 14 16 17 18 21 23 25 27 29 30 29 30 32 33 35 36 37 38 39 39 38 38 38 38 38 37 36 35 37 38 38 39 39
8 3 4 4 1 8 13 8 10 11 6 2 5 7 5 3 6 4 1 0 3 2 3 3 4 5 3 7 9 9 9 8 7 6 6 7 4 4 4 5 5 6 6 5 6 6 6 7 9 10 11 11 12 12 14 15 16 18 20 23 25 27 28 28 28 29 31 32 33 35 36 36 36 36 36 37 37 36 36 36 37 38 38 38 39 39
6 2 2 3 3 3 5 9 8 4 4 6 6 7 4 3 3 4 1 2 2 3 3 2 6 4 2 5 5 6 10 9 7 7 7 7 4 5 6 6 6 6 5 5 5 5 5 5 7 9 9 10 10 11 13 14 15 17 18 21 23 24 25 25 25 25 26 27 29 31 32 33 33 34 35 36 36 36 35 36 37 38 38 38 38 37
5 4 3 2 5 2 3 9 6 4 2 5 6 7 5 2 2 3 3 2 2 4 4 3 5 4 5 6 2 5 11 10 8 7 7 7 7 6 6 7 7 6 4 5 5 5 5 5 7 7 8 8 9 10 11 12 15 17 19 19 20 21 22 22 22 23 24 25 27 29 30 31 33 34 35 36 36 36 36 36 36 36 36 37 36 35
5 5 1 2 2 3 3 5 9 5 3 3 5 6 4 2 3 4 3 3 3 3 4 3 3 4 7 7 6 9 11 11 11 8 8 9 8 7 7 7 7 6 6 6 6 6 5 6 7 7 6 7 7 8 9 10 12 14 15 16 17 18 19 20 21 22 24 26 27 29 30 31 32 33 33 34 34 34 35 35 35 35 35 35 34 34
4 3 4 1 1 3 4 6 11 13 8 6 7 8 5 2 2 2 2 2 4 4 3 3 4 6 6 4 9 12 11 11 12 10 9 8 8 9 8 8 7 7 7 6 6 6 6 6 7 7 6 5 5 6 7 9 10 11 12 14 14 15 16 17 19 20 22 23 25 28 30 30 30 29 29 29 30 31 31 31 31 32 32 32 32 32
4 2 5 5 3 5 8 6 6 11 12 9 9 10 9 6 4 3 4 2 3 4 4 4 5 7 5 4 8 11 9 9 10 10 9 8 10 10 8 8 8 7 7 7 7 6 6 6 7 7 6 4 4 5 6 8 9 11 13 13 14 15 16 16 17 18 18 19 21 23 25 26 26 26 27 27 28 29 29 29 28 27 27 28 29 29
3 4 6 5 5 5 4 1 1 4 6 4 3 6 7 5 5 5 7 5 3 4 3 2 4 7 5 4 6 9 9 9 10 11 10 9 10 10 8 8 7 7 7 7 6 6 6 6 6 6 5 5 5 5 6 8 9 10 11 12 14 15 15 15 15 15 15 17 18 19 20 22 23 23 24 25 26 27 27 27 27 26 26 25 25 25
3 4 5 3 1 1 3 2 3 2 4 3 2 4 7 9 8 6 5 4 4 5 3 2 6 7 5 4 3 5 6 7 8 10 11 9 8 8 9 9 8 8 8 7 6 6 5 4 4 5 6 6 7 7 7 8 8 8 9 10 12 13 12 12 13 13 14 15 16 17 18 19 20 21 22 23 23 24 24 25 25 25 25 24 24 23
2 4 7 5 3 1 1 1 1 1 4 6 7 8 10 14 12 5 1 2 3 6 7 6 7 7 4 3 2 3 4 6 7 8 10 10 9 9 8 8 8 8 7 7 7 5 4 4 4 6 8 7 8 8 8 8 7 7 7 7 8 9 9 10 11 12 13 14 15 16 16 17 18 19 20 20 21 22 23 23 23 23 23 23 22 22
2 4 8 9 10 9 9 10 9 7 6 4 7 13 14 16 16 9 3 3 4 5 6 6 9 8 4 0 2 3 4 6 5 5 6 7 9 10 9 8 8 7 8 8 8 6 5 4 5 7 8 9 10 9 8 7 7 6 5 6 6 8 9 9 10 12 13 14 15 16 16 17 17 17 17 18 19 20 21 22 23 23 23 23 23 23
2 3 7 10 12 12 11 10 9 10 8 6 10 17 16 13 13 10 5 6 8 4 4 9 15 13 9 5 2 2 5 7 6 6 6 6 8 9 10 9 8 7 8 8 7 6 4 4 6 7 9 10 10 8 7 7 6 6 6 5 6 8 9 9 10 11 12 14 15 17 17 16 16 16 16 17 18 19 20 20 19 18 18 19 20 21
3 3 7 9 10 6 3 5 9 13 15 17 18 20 17 13 14 13 12 14 11 5 5 16 19 18 14 7 7 8 8 8 8 9 9 9 9 10 9 8 8 8 8 7 7 6 6 6 6 7 9 11 10 8 7 7 6 6 6 6 6 7 8 8 10 11 12 13 13 14 13 13 13 14 14 14 15 17 17 17 16 15 15 15 16 17
3 3 6 8 10 5 2 7 13 14 15 17 19 21 21 20 20 19 19 21 15 9 14 22 17 17 17 9 9 11 10 10 11 11 9 8 8 8 8 8 10 10 9 9 8 8 7 7 7 7 10 13 12 9 8 7 6 5 5 6 6 6 7 7 9 10 11 12 11 10 10 10 11 10 10 11 11 12 12 12 12 13 14 15 15 16
3 3 5 6 9 8 3 5 12 14 13 13 15 19 20 21 22 23 23 23 18 14 21 23 15 16 16 10 10 11 10 9 9 6 5 6 7 8 9 10 11 11 11 10 9 9 8 7 7 8 11 13 14 12 10 7 6 5 5 5 5 6 6 7 8 9 10 10 10 9 8 8 9 9 8 9 9 9 9 9 9 10 11 13 14 15
4 4 5 5 7 8 6 5 8 14 15 15 17 19 19 18 20 21 21 20 16 17 24 21 15 16 12 8 9 9 7 7 6 5 6 8 9 9 10 11 12 12 12 10 9 9 7 7 8 8 10 13 14 12 9 7 6 5 5 5 5 6 6 6 7 8 9 10 9 8 7 7 8 8 7 7 7 6 6 7 7 8 9 10 11 13
6 4 5 5 4 6 8 9 10 11 13 14 16 16 17 18 19 20 22 20 17 18 21 17 14 16 9 8 8 6 6 8 9 10 10 9 10 11 12 13 13 12 12 11 10 9 8 8 8 8 11 14 13 10 8 7 7 6 6 6 5 5 5 5 6 7 8 9 8 5 5 7 8 8 6 5 5 5 5 5 6 6 8 8 9 10
8 6 4 5 5 6 9 11 9 7 8 10 13 19 23 24 24 22 21 19 17 17 16 15 16 13 5 8 9 8 9 11 11 11 11 11 12 12 12 13 13 13 13 11 10 10 9 9 10 13 15 14 12 10 9 8 8 7 6 6 5 5 5 5 5 7 8 7 5 3 4 6 6 6 6 5 4 4 5 4 5 6 7 7 8 9
7 9 5 5 6 6 8 10 6 6 10 11 13 22 27 27 25 23 20 20 20 19 15 15 17 9 5 8 12 11 11 13 13 13 12 11 11 11 12 13 13 13 12 11 10 10 10 10 12 15 16 14 13 12 10 9 8 7 6 5 5 4 4 5 5 6 5 4 2 2 3 4 4 4 5 4 3 4 4 4 5 5 6 6 7 8
5 8 5 4 5 4 7 9 6 8 12 7 5 12 18 19 21 22 22 22 22 22 21 21 19 11 6 8 10 10 13 14 13 14 14 12 12 12 12 12 11 12 11 10 10 10 10 10 12 15 16 16 15 14 12 11 9 8 6 5 4 4 4 4 5 4 3 2 1 1 1 2 2 3 3 3 4 4 3 4 5 5 6 7 8 8
3 3 2 2 3 2 4 7 6 5 4 1 3 9 12 14 17 17 19 22 23 23 21 21 20 14 10 10 8 8 10 8 7 10 11 11 11 11 12 11 13 14 12 11 11 12 13 15 17 20 20 19 17 15 13 12 10 8 7 5 4 4 3 3 3 2 2 2 2 2 1 1 2 2 2 2 3 3 4 4 5 6 7 8 8 9
8 2 2 1 3 2 3 6 4 2 3 1 4 10 15 18 18 16 15 19 18 17 16 18 20 19 16 16 12 7 3 3 6 9 9 11 12 10 11 14 15 14 12 12 15 17 19 21 22 23 22 19 17 15 14 12 10 9 9 7 5 4 2 1 2 2 2 2 3 3 2 2 2 1 2 2 2 3 4 5 6 7 7 8 8 9
9 8 4 1 2 1 1 3 3 2 5 10 12 13 15 14 11 10 8 13 12 15 18 21 23 22 21 19 13 6 1 3 10 11 8 10 11 10 12 15 14 12 13 15 15 16 18 21 22 22 21 19 17 15 14 13 11 11 11 9 6 5 4 4 4 4 4 3 3 3 3 2 2 1 1 2 3 4 4 5 6 7 7 8 8 8
9 8 6 4 4 3 2 3 3 5 9 11 10 10 9 7 11 13 5 13 14 18 21 22 23 23 21 17 11 8 5 8 15 12 9 11 12 13 16 15 10 10 16 20 20 20 22 23 22 21 19 18 17 15 14 14 13 13 12 10 8 7 6 5 5 5 5 3 3 4 3 3 2 1 1 1 3 3 4 4 5 6 7 8 8 8
9 6 6 7 8 7 5 5 3 5 9 7 4 7 10 12 14 13 7 16 15 15 18 20 24 24 19 13 10 10 11 15 18 11 12 15 17 18 17 13 10 12 15 18 21 24 26 26 23 21 20 19 18 16 16 16 15 15 14 12 10 9 8 6 5 5 5 4 4 4 4 3 3 2 2 1 2 2 3 4 4 5 6 7 7 8
6 5 6 9 10 9 8 6 4 6 8 6 4 8 14 14 11 10 14 14 7 13 17 19 21 20 15 12 10 11 15 19 19 11 13 17 19 18 13 10 12 14 15 18 22 24 25 23 21 21 20 18 17 17 17 18 17 16 15 13 11 10 9 6 4 4 6 6 5 5 5 4 3 3 3 2 2 3 3 3 3 4 5 5 6 7
5 3 4 7 8 6 6 6 5 8 8 8 8 10 14 12 7 13 13 5 7 13 16 18 18 15 13 14 15 15 17 21 24 18 13 15 17 15 9 7 9 9 10 15 21 24 24 19 17 18 17 15 16 17 18 19 19 18 16 13 11 10 9 7 4 5 7 8 7 6 5 5 4 3 3 3 3 3 3 3 3 4 4 4 5 5
7 6 5 6 7 5 4 5 6 10 6 13 14 8 9 10 10 9 5 0 5 10 12 12 14 13 14 17 19 20 21 23 23 16 10 10 10 10 8 9 10 10 12 15 18 21 23 20 18 18 16 14 16 18 19 19 20 19 16 13 12 10 10 9 6 6 9 9 8 7 6 5 5 4 4 4 5 5 5 4 4 4 4 4 4 5
8 8 5 5 6 5 5 8 8 6 5 16 16 10 12 12 6 4 6 5 3 5 7 8 9 10 13 15 17 19 22 22 15 7 7 8 8 8 8 9 9 11 13 15 17 21 23 22 19 18 16 14 16 18 19 19 21 20 16 13 12 11 11 10 8 8 10 10 9 8 7 6 6 5 5 6 6 6 7 6 6 6 6 5 5 5
10 11 8 7 8 8 9 11 8 3 4 10 10 9 13 14 6 3 7 7 4 4 6 7 8 9 12 16 17 18 19 17 11 8 9 10 9 9 9 9 9 11 13 16 19 21 22 23 22 20 17 15 16 19 19 19 21 21 17 15 14 12 12 11 9 9 11 10 9 9 7 6 6 5 5 6 6 6 7 7 7 7 7 6 6 6
9 12 9 6 7 8 9 9 8 6 6 8 7 4 7 13 10 6 6 5 5 6 5 5 7 9 10 13 13 13 14 13 10 8 8 9 8 8 8 8 9 12 15 18 20 22 23 24 23 21 19 16 17 19 19 18 19 20 19 17 15 13 12 11 11 12 12 11 10 9 8 8 7 6 6 6 5 6 6 6 6 7 6 6 6 6
4 8 7 6 7 8 9 11 15 16 9 5 7 9 7 8 8 5 5 5 5 5 5 5 6 6 7 9 11 12 12 11 9 7 6 7 9 9 10 10 9 11 14 17 21 24 26 24 20 18 19 19 17 19 20 19 19 20 19 17 16 14 13 12 13 14 14 12 11 11 10 10 9 8 8 7 7 7 7 6 6 6 6 6 6 6
4 7 8 7 8 10 12 13 14 14 10 8 10 10 7 6 6 4 5 6 4 3 4 4 4 5 6 8 10 11 10 8 9 10 8 8 8 9 10 10 10 11 15 18 22 24 23 22 20 19 20 20 19 20 21 21 20 20 19 17 16 15 15 15 15 16 15 14 12 11 11 11 11 10 9 8 8 8 8 8 7 7 7 7 6 6
8 9 7 7 8 10 12 10 5 5 11 17 15 9 5 6 6 5 6 7 5 3 1 3 5 6 7 7 8 8 8 8 9 11 10 9 8 9 9 9 10 14 18 21 21 21 21 21 21 21 21 20 20 21 22 22 20 19 18 18 16 16 16 17 18 17 17 15 14 12 11 10 10 10 8 8 7 7 7 6 5 5 5 5 5 5
8 8 7 8 9 10 13 14 10 9 12 14 12 11 10 9 8 7 8 8 7 5 3 5 6 5 4 6 7 9 9 9 8 9 10 9 9 9 10 10 11 14 18 21 20 19 19 20 21 23 23 21 21 22 22 21 20 19 19 19 17 16 17 19 19 19 17 15 14 13 11 10 10 9 8 8 7 7 7 7 6 6 6 6 5 5
11 12 12 12 12 14 19 20 14 11 11 8 7 11 14 12 10 10 11 10 9 9 8 8 8 7 6 6 6 8 10 9 9 10 10 8 8 10 12 13 14 15 18 21 21 21 21 20 22 24 24 22 23 24 22 21 20 19 19 20 19 17 17 19 21 21 18 16 15 14 12 11 11 9 9 9 8 8 8 8 8 8 9 10 10 9
Wind_Direction
152 164 198 204 191 190 190 187 208 194 162 180 182 174 181 185 240 237 234 240 178 179 224 214 218 239 245 248 248 251 242 230 231 227 226 224 223 225 219 216 213 212 217 215 211 209 209 210 210 208 209 208 208 209 208 207 208 210 210 210 212 213 213 213 213 212 212 212 213 215 218 220 223 224 226 227 230 231 231 229 227 227 227 229 231 232
157 192 209 203 185 183 185 181 206 218 193 198 183 170 194 192 226 250 241 251 154 168 251 241 235 250 253 250 250 246 236 229 227 226 228 224 222 221 218 216 213 216 219 214 212 210 208 209 208 207 206 206 206 207 207 208 209 209 209 210 211 212 212 213 213 212 212 213 214 214 217 220 222 224 225 227 229 231 233 233 232 230 229 229 231 233
184 211 205 190 176 177 185 184 198 221 217 220 204 159 192 206 206 296 339 348 106 195 264 279 252 259 263 257 256 251 239 233 224 222 223 221 221 219 217 217 213 215 217 212 211 210 207 206 206 204 204 206 207 207 207 209 210 209 209 211 212 212 212 213 213 214 215 216 217 218 219 220 221 225 227 229 231 232 233 234 234 233 231 231 231 231
193 209 189 173 175 176 184 190 192 219 225 217 205 166 198 216 177 223 304 292 211 213 238 330 300 271 265 265 262 250 242 244 235 227 224 219 218 217 216 216 210 209 213 214 215 211 207 205 203 202 203 206 207 207 207 208 208 208 210 211 211 212 213 213 214 216 218 218 219 221 223 224 224 227 230 231 233 233 233 234 234 233 232 231 231 231
185 167 160 164 181 179 179 190 190 204 223 221 209 179 182 193 181 200 210 190 300 309 313 30 333 284 249 254 259 252 246 248 246 242 242 233 224 226 225 221 215 211 209 210 215 214 209 206 204 203 204 205 204 206 208 209 209 210 212 212 212 212 213 214 215 216 216 216 217 218 220 223 226 229 230 230 230 230 231 232 233 232 231 230 230 231
173 143 152 167 182 179 178 191 194 192 202 228 220 188 172 166 142 121 133 111 34 312 294 90 331 286 279 266 262 268 270 260 254 246 246 245 236 233 234 229 222 221 217 212 213 212 208 208 208 207 206 204 204 207 210 211 212 212 213 213 213 213 214 216 216 215 212 212 212 210 210 212 216 220 223 224 226 226 227 230 231 231 230 230 230 231
167 154 155 167 178 178 185 196 194 184 177 223 220 178 167 152 110 107 126 131 185 257 286 102 170 269 305 290 268 277 284 275 272 253 245 246 240 231 227 225 220 221 222 221 219 215 210 209 208 208 209 206 207 211 212 213 213 214 214 214 214 214 215 217 217 214 212 211 211 210 210 211 212 217 223 226 226 227 228 230 231 230 230 229 230 231
156 160 159 164 171 177 193 202 193 178 167 224 215 166 173 179 143 128 119 133 198 250 325 20 133 257 291 268 259 275 281 279 274 265 254 242 237 236 230 222 218 217 214 214 217 215 214 213 210 210 210 210 212 214 215 215 215 216 216 216 215 215 217 217 217 216 213 213 214 214 215 217 218 222 227 229 228 230 231 231 231 231 230 229 229 230
155 168 170 164 165 180 197 201 189 175 175 237 192 153 171 173 144 117 102 104 34 28 301 300 129 220 276 270 278 288 278 271 264 258 256 247 235 233 233 224 219 220 215 210 211 209 211 215 215 216 215 214 215 217 217 218 218 218 218 217 216 216 218 219 218 218 217 217 217 217 218 221 225 228 231 233 232 232 232 233 233 232 232 231 229 229
156 172 168 161 167 188 192 192 182 180 195 208 115 97 91 92 90 87 95 95 40 343 241 226 166 211 274 278 281 285 258 257 256 253 249 247 241 230 228 227 223 223 222 218 217 214 213 217 220 221 219 219 219 220 221 221 221 220 219 218 218 219 220 220 219 219 220 219 218 219 220 223 227 230 232 233 234 234 233 233 234 234 233 233 231 230
134 153 158 164 178 179 171 179 180 178 172 128 101 83 72 55 59 63 60 79 61 284 239 202 188 197 263 277 252 219 230 239 242 255 251 248 252 240 228 228 226 222 224 225 225 225 223 225 226 224 220 221 221 222 223 223 222 221 221 219 220 222 222 221 220 219 221 220 219 221 222 224 228 229 229 230 232 233 231 233 234 234 234 234 233 233
119 145 166 174 175 157 151 170 165 159 150 118 102 106 97 36 27 32 18 65 178 258 249 214 191 185 227 255 246 238 245 239 226 232 233 222 219 215 203 207 212 208 210 211 207 209 214 220 224 222 220 221 220 220 222 223 223 222 222 220 220 223 223 222 222 220 221 220 220 223 225 227 229 229 228 229 232 232 231 232 234 234 234 234 234 233
137 163 182 140 162 153 147 149 43 133 152 122 124 134 119 79 45 63 279 161 224 242 247 219 178 198 234 240 255 268 262 248 238 224 197 181 175 167 164 168 171 169 171 182 191 198 202 207 215 218 221 220 215 216 219 221 222 221 221 220 220 223 224 223 222 221 221 221 223 225 227 228 231 230 230 232 234 235 233 234 235 234 233 233 233 233
146 311 189 145 179 180 161 165 161 172 172 152 153 156 149 143 138 194 218 243 254 247 248 205 178 235 270 242 237 248 250 240 235 238 210 185 183 179 176 177 173 175 184 196 209 214 216 220 223 224 227 225 217 216 217 218 219 219 219 219 220 224 226 224 223 223 223 224 225 227 229 230 231 232 233 234 235 237 237 236 236 236 235 235 235 235
161 197 189 171 183 183 175 177 161 141 151 162 149 142 156 160 166 190 191 198 227 247 271 240 199 200 206 253 234 237 255 260 229 241 232 208 199 174 156 157 185 228 234 228 228 229 228 221 218 223 227 227 225 223 221 219 218 218 219 219 221 225 227 225 225 226 226 227 228 229 230 232 233 234 235 236 238 239 239 239 239 240 239 239 240 241
166 186 193 178 171 173 174 167 128 118 123 219 122 129 184 183 150 152 180 178 163 146 242 213 232 213 202 280 280 257 276 284 259 253 222 204 199 131 137 196 222 241 242 229 221 226 236 226 215 218 221 223 226 226 225 224 221 220 221 221 223 227 229 228 228 228 229 231 231 231 232 234 235 236 237 239 241 241 242 243 243 244 244 244 245 245
172 189 189 157 50 180 173 156 156 157 157 175 157 169 193 154 117 110 217 160 96 180 236 191 244 291 318 285 272 250 258 266 260 257 218 208 196 141 182 229 234 232 225 216 212 216 231 229 219 218 219 223 224 224 226 225 224 224 224 224 226 229 230 230 230 231 232 233 234 235 235 236 237 238 239 241 244 245 245 245 246 247 247 247 247 247
164 125 246 166 121 188 156 129 155 182 136 140 177 181 143 79 84 106 142 5 58 228 261 210 227 271 305 271 267 233 239 250 248 234 224 230 211 175 204 228 223 219 220 230 232 233 235 226 218 218 220 225 227 227 227 224 223 225 226 226 228 231 233 234 235 236 237 237 238 240 240 240 240 241 243 244 246 247 247 247 247 247 248 248 249 249
152 111 313 239 147 150 104 121 153 289 323 143 168 171 143 139 209 157 161 182 179 228 272 268 245 234 217 235 248 209 221 232 237 222 214 220 201 185 207 220 219 219 226 235 234 235 237 224 213 209 212 217 219 222 221 218 219 222 225 228 231 235 237 239 240 240 240 240 241 243 243 244 244 245 246 247 248 249 249 250 251 250 251 252 252 253
164 134 198 264 148 137 127 154 179 221 323 76 137 168 164 151 177 176 171 156 160 213 260 291 301 243 224 214 201 211 214 210 214 209 205 206 192 186 197 201 205 207 208 214 216 221 228 220 206 197 202 208 211 219 219 219 222 222 226 229 230 235 237 237 239 238 239 239 238 241 242 243 245 246 248 250 251 253 253 255 256 256 257 257 257 256
159 142 158 156 45 137 179 203 188 185 180 156 168 182 180 159 136 166 182 133 131 168 216 257 272 256 246 206 199 213 214 204 202 198 199 200 186 189 195 190 193 198 205 211 212 216 223 215 201 193 198 202 207 222 226 228 231 228 227 226 226 229 231 232 233 233 235 236 236 239 241 243 246 248 251 253 254 256 257 258 260 260 260 260 259 258
162 155 154 150 172 186 195 204 192 192 189 178 182 184 180 174 131 147 215 204 149 175 176 194 254 263 249 207 206 214 212 204 199 189 189 194 190 193 197 193 192 192 202 213 212 215 218 207 197 192 194 201 214 227 228 226 227 224 224 224 224 227 230 232 233 234 238 240 241 243 246 248 251 252 254 256 256 258 260 261 263 264 264 263 262 262
115 115 141 152 186 195 198 199 83 183 176 157 187 176 168 171 142 165 211 208 191 211 151 129 272 275 256 229 220 218 210 202 195 182 180 192 192 190 193 196 200 202 207 215 215 218 215 201 192 195 202 216 226 226 222 218 217 219 220 221 223 228 233 237 242 246 248 249 250 251 253 254 256 257 258 260 261 262 263 265 266 266 266 266 266 265
65 109 141 117 91 1 348 344 25 63 127 123 198 170 164 191 191 182 196 175 181 210 181 183 261 266 272 279 237 209 198 188 190 182 176 185 191 188 193 194 198 209 216 224 228 232 232 212 196 206 214 218 220 217 212 211 212 214 217 221 228 237 246 253 258 261 260 259 259 259 260 260 261 261 262 263 265 266 266 268 268 268 268 269 269 268
188 161 149 126 132 107 335 257 30 3 186 183 199 191 185 196 194 180 124 123 191 215 182 189 243 250 260 322 38 103 136 157 191 196 178 176 185 190 194 196 198 205 213 224 232 241 249 238 218 218 220 216 215 216 212 210 214 218 226 237 247 259 268 270 268 268 267 266 265 264 264 264 264 266 266 267 267 268 268 268 267 266 267 269 270 269
223 186 162 159 173 178 190 198 188 185 191 184 188 192 196 197 192 190 182 164 223 225 165 186 245 247 224 244 40 73 125 154 197 219 196 186 190 188 190 197 199 201 207 215 221 227 233 236 233 228 224 219 215 215 215 218 224 235 251 263 274 282 282 277 273 269 266 265 264 264 262 262 263 264 265 267 268 269 269 269 269 267 266 267 269 269
31 236 199 189 194 193 195 197 174 154 153 156 178 191 198 194 186 188 190 203 215 195 159 218 236 239 228 199 185 192 173 180 198 204 201 198 195 194 195 197 196 199 209 213 216 219 214 223 238 236 228 221 216 216 221 228 235 247 265 278 286 287 286 282 276 270 267 268 267 266 265 264 264 264 263 264 265 267 269 270 272 274 273 272 270 269
85 266 231 221 224 217 166 150 149 153 171 182 184 188 190 181 179 189 206 217 205 155 219 233 228 237 241 200 180 208 197 194 204 199 196 193 191 197 197 194 199 208 216 219 220 218 208 215 236 242 232 221 214 216 222 228 239 251 270 287 289 286 287 285 278 273 272 274 276 278 279 278 277 276 273 272 273 275 276 273 269 268 270 273 272 269
127 220 227 232 249 268 79 146 163 171 188 193 187 187 189 184 184 193 209 218 202 176 230 236 222 232 243 212 190 211 201 199 209 203 197 193 190 189 186 192 203 211 217 219 221 218 208 212 226 230 224 217 212 216 222 228 240 249 264 279 285 286 288 284 278 276 276 280 288 294 295 295 298 297 289 283 285 290 294 292 282 270 264 266 270 272
138 198 196 209 242 258 260 180 174 178 192 200 196 195 194 190 192 198 209 217 208 203 234 241 233 238 240 209 198 212 204 208 215 198 185 194 197 193 191 201 208 210 214 213 216 219 210 210 220 217 214 211 210 215 222 226 233 242 256 268 275 281 285 281 278 276 278 286 296 301 304 308 312 309 298 288 288 295 303 307 303 291 278 268 267 272
187 189 154 170 229 237 237 236 201 186 188 196 199 200 197 195 200 208 215 217 209 216 234 241 246 253 242 193 199 216 199 198 206 197 202 208 207 201 201 209 211 212 215 212 213 221 214 212 219 213 208 209 209 211 215 217 220 230 244 256 264 272 276 274 275 278 284 293 302 309 311 311 311 311 304 294 294 301 304 303 302 299 292 282 273 270
195 192 133 148 226 225 204 215 216 200 196 201 201 197 194 198 204 209 216 215 203 213 230 235 242 252 235 172 189 211 193 195 202 204 210 216 212 206 207 212 213 214 215 211 211 215 212 212 211 204 205 206 203 202 206 210 213 221 234 248 259 265 265 267 273 279 286 294 301 305 300 302 315 325 322 309 304 303 300 298 298 294 289 287 282 277
181 185 156 157 205 228 200 194 200 197 200 208 202 194 194 202 206 209 216 218 206 207 220 222 228 234 193 156 186 202 203 209 210 207 208 211 212 211 210 211 212 215 213 208 208 207 206 207 201 198 199 197 192 196 205 212 214 219 231 243 249 253 255 261 266 271 282 290 292 281 282 298 317 331 326 318 305 297 297 296 294 296 296 293 291 291
189 189 183 169 205 220 175 163 165 186 206 218 209 198 197 200 203 208 216 216 209 211 219 226 230 222 149 167 192 195 204 211 211 211 209 205 207 210 214 214 213 216 216 209 204 201 200 202 199 196 192 185 185 193 199 206 211 217 225 229 235 240 241 246 253 264 280 293 286 253 275 297 313 328 334 334 319 301 300 302 300 305 307 304 301 301
214 201 180 169 212 210 148 151 175 210 218 230 203 191 199 204 204 210 221 220 213 215 222 230 233 219 180 197 198 193 209 213 212 214 211 204 201 200 207 215 215 217 217 208 204 205 201 192 185 182 180 178 182 186 191 198 202 205 211 210 214 217 215 230 245 254 255 244 212 219 250 286 305 327 339 342 339 323 310 315 317 316 317 318 319 316
154 216 215 180 193 165 145 173 199 228 241 344 107 161 185 209 208 209 227 230 219 216 221 230 236 230 217 225 220 208 220 229 233 232 217 208 208 201 198 206 213 217 212 197 197 202 195 184 179 179 178 176 179 183 189 196 195 194 193 183 181 189 196 223 234 222 208 189 166 178 197 246 280 299 313 329 352 343 327 329 327 323 326 331 333 330
136 155 303 277 207 181 178 194 209 337 0 287 209 181 183 204 204 196 223 236 221 211 219 230 235 232 226 227 224 219 240 298 273 251 219 207 215 206 199 208 213 211 201 196 200 198 191 185 182 182 178 171 175 184 188 189 186 180 173 162 159 165 155 149 144 129 133 142 147 162 174 203 246 275 292 308 331 331 331 337 336 340 345 344 342 341
158 174 184 234 277 36 100 208 225 264 232 222 219 202 192 199 184 162 215 248 221 197 209 223 228 228 227 225 215 197 175 287 257 243 203 198 213 208 211 222 217 199 189 192 194 187 182 180 177 177 175 169 173 182 182 179 175 166 158 150 146 138 116 101 98 101 100 107 130 146 153 173 205 237 284 315 330 331 335 338 336 342 347 344 344 345
177 181 171 195 257 280 285 260 228 223 241 235 214 194 177 146 111 112 184 253 231 198 200 217 225 226 226 220 198 174 180 232 247 239 176 176 206 214 218 221 206 189 191 188 182 175 172 171 169 169 170 167 171 177 174 170 165 156 147 139 133 121 104 94 98 112 116 114 129 142 148 160 166 149 138 8 360 355 354 353 347 345 342 339 342 344
178 172 163 193 232 237 239 266 268 243 254 251 193 162 152 135 116 119 197 251 237 194 189 209 222 224 222 207 181 180 198 222 241 230 161 173 206 219 222 213 185 184 191 186 181 176 170 167 165 164 165 167 171 171 167 162 156 148 141 136 130 118 104 96 96 118 136 140 136 140 144 151 153 144 140 113 49 40 25 15 11 5 357 352 351 350
178 178 176 197 219 218 214 235 269 263 244 225 189 161 143 126 119 163 213 240 210 166 181 205 218 221 212 189 181 200 212 223 236 219 162 179 210 222 224 205 180 182 184 178 175 169 163 164 164 161 160 165 167 164 162 159 149 141 139 135 124 112 108 110 102 112 131 131 126 131 134 137 145 138 125 119 95 78 61 39 26 18 14 6 359 355
171 169 182 197 207 207 211 224 261 271 237 171 160 165 148 140 177 206 215 221 133 157 187 204 210 208 194 184 196 213 218 224 232 225 189 190 212 217 208 177 161 161 163 164 166 162 156 152 150 147 147 156 162 161 160 155 142 137 137 128 115 111 118 128 122 107 116 119 119 124 124 121 125 120 107 108 105 93 77 60 44 34 29 20 9 3
171 173 188 194 188 174 177 190 233 265 227 139 135 162 179 186 205 209 215 151 145 173 190 200 206 200 188 193 205 213 220 227 231 225 197 190 209 208 188 170 161 156 153 154 161 162 154 142 135 136 139 150 158 156 156 151 139 133 130 119 114 122 130 135 135 116 115 119 117 116 116 110 109 108 102 100 97 92 83 69 59 51 44 34 21 12
178 180 186 193 187 168 175 193 213 249 177 142 146 179 208 211 204 179 207 230 217 195 189 199 218 205 189 200 211 215 225 231 226 193 154 166 185 184 174 167 161 161 160 156 157 158 150 139 131 131 133 144 150 150 154 152 139 130 124 117 121 132 135 139 143 126 119 120 117 114 113 109 104 99 94 90 87 87 82 73 69 64 54 48 39 28
188 189 190 194 193 191 202 210 213 233 185 177 180 189 203 214 215 165 198 216 224 218 193 192 220 214 195 203 212 215 225 231 217 177 165 174 176 170 167 163 156 156 153 146 146 149 145 138 133 130 130 136 142 143 149 152 141 130 123 123 130 136 137 139 138 124 117 120 121 120 121 120 115 109 103 97 91 91 88 79 77 72 62 58 51 40
194 188 188 192 198 210 228 233 230 235 224 219 240 248 205 213 215 188 188 204 210 217 202 192 221 227 210 207 213 219 228 225 207 191 182 174 168 161 156 150 147 148 146 142 143 144 140 134 132 130 128 128 133 137 140 144 140 130 126 130 135 133 134 135 129 120 116 112 110 110 111 114 115 112 111 110 102 96 91 86 85 81 72 69 64 54
214 191 192 191 183 197 225 234 229 227 218 206 244 257 242 237 241 213 199 216 220 214 210 219 239 238 208 196 201 214 225 217 193 183 177 166 166 165 159 154 150 149 147 146 146 145 140 135 134 135 130 125 128 133 133 133 132 128 128 134 134 132 135 136 127 120 116 111 106 104 103 102 104 105 104 101 95 90 86 81 81 81 75 68 61 56
195 194 197 192 186 199 221 231 230 228 222 217 230 236 232 247 264 249 221 231 235 209 194 208 225 213 196 195 198 206 214 202 178 177 180 175 173 169 163 159 155 147 144 144 147 147 143 140 140 139 131 126 127 129 127 125 124 127 131 133 132 135 139 135 127 121 116 114 113 110 104 100 100 102 101 94 87 83 79 74 68 65 63 56 46 43
167 181 178 174 194 221 237 241 231 219 229 230 226 222 224 230 229 226 226 230 239 257 269 239 222 203 195 200 194 189 196 201 191 182 176 172 172 167 160 155 148 144 144 146 149 150 146 143 142 137 129 127 129 128 125 123 124 129 133 132 134 141 141 133 127 122 117 115 115 113 110 106 102 101 99 92 84 79 75 72 63 53 49 40 27 18
165 179 170 177 202 224 232 227 210 208 232 234 215 204 217 218 207 216 231 230 228 235 244 251 259 265 245 217 189 176 188 203 195 175 167 169 169 162 154 148 141 141 144 144 144 144 142 140 138 131 125 126 128 126 123 123 126 131 134 133 138 145 142 134 127 121 116 114 111 110 111 108 102 100 96 87 82 80 78 77 71 60 47 34 23 15
184 182 180 195 210 221 227 224 211 211 237 243 202 196 204 199 197 215 226 224 223 222 215 219 238 259 263 241 206 188 191 190 177 166 162 160 158 152 149 149 146 143 144 143 140 137 137 137 134 128 125 127 129 126 124 125 128 133 137 138 140 144 142 136 127 119 114 112 109 108 108 104 99 98 93 86 80 77 76 78 75 68 61 55 51 50